WZZ1031 EBCI-LWSK

Flight info

Callsign WZZ1031
Flight time 2h 6m
Altitude 33000
Route RITAX M624 DIK M150 PITES DCT BABEG DCT KUMOM DCT EVAXI DCT NIPEL DCT GORPA DCT DEVUL DCT LIKVI DCT REMSO DCT MEDUX UM867 KOGAT
Aircraft A21N/M-SDE1E2E3FGIJ1J4RWXY/LB1

Departure

Time 2026-04-28 13:34
Airport Brussels South Charleroi Airport (EBCI)

Arrival

Time 2026-04-28 15:41
Airport Skopje International Airport (LWSK)
Time Latitude Longitude Altitude Speed Heading
2026-04-28 12:52 50.46926 4.47288 590 ft 0 kts 335°
2026-04-28 13:19 50.46916 4.47296 590 ft 3 kts 335°
2026-04-28 13:20 50.46900 4.47308 590 ft 3 kts 329°
2026-04-28 13:20 50.46886 4.47326 589 ft 3 kts 291°
2026-04-28 13:20 50.46885 4.47353 590 ft 3 kts 253°
2026-04-28 13:20 50.46892 4.47383 590 ft 3 kts 245°
2026-04-28 13:21 50.46894 4.47388 590 ft 1 kts 245°
2026-04-28 13:25 50.46892 4.47383 590 ft 2 kts 245°
2026-04-28 13:25 50.46882 4.47347 590 ft 6 kts 245°
2026-04-28 13:26 50.46859 4.47273 590 ft 9 kts 245°
2026-04-28 13:26 50.46849 4.47238 591 ft 3 kts 245°
2026-04-28 13:26 50.46835 4.47194 591 ft 6 kts 245°
2026-04-28 13:26 50.46814 4.47119 591 ft 8 kts 246°
2026-04-28 13:27 50.46788 4.47029 591 ft 10 kts 246°
2026-04-28 13:27 50.46759 4.46925 591 ft 11 kts 246°
2026-04-28 13:27 50.46725 4.46806 593 ft 13 kts 246°
2026-04-28 13:27 50.46688 4.46679 593 ft 9 kts 246°
2026-04-28 13:28 50.46665 4.46597 593 ft 7 kts 246°
2026-04-28 13:28 50.46629 4.46535 595 ft 9 kts 196°
2026-04-28 13:28 50.46563 4.46561 596 ft 10 kts 165°
2026-04-28 13:28 50.46514 4.46486 594 ft 11 kts 247°
2026-04-28 13:29 50.46481 4.46369 594 ft 12 kts 246°
2026-04-28 13:29 50.46443 4.46240 596 ft 14 kts 246°
2026-04-28 13:29 50.46403 4.46100 597 ft 15 kts 246°
2026-04-28 13:29 50.46358 4.45947 602 ft 16 kts 245°
2026-04-28 13:30 50.46310 4.45785 602 ft 17 kts 246°
2026-04-28 13:30 50.46261 4.45614 614 ft 18 kts 245°
2026-04-28 13:30 50.46209 4.45436 614 ft 18 kts 245°
2026-04-28 13:30 50.46155 4.45252 610 ft 19 kts 245°
2026-04-28 13:31 50.46081 4.44999 601 ft 7 kts 245°
2026-04-28 13:31 50.46060 4.44925 602 ft 8 kts 245°
2026-04-28 13:31 50.46035 4.44839 602 ft 9 kts 246°
2026-04-28 13:32 50.45983 4.44787 601 ft 10 kts 187°
2026-04-28 13:32 50.45914 4.44820 602 ft 12 kts 156°
2026-04-28 13:32 50.45878 4.44844 602 ft 3 kts 153°
2026-04-28 13:32 50.45872 4.44874 601 ft 3 kts 87°
2026-04-28 13:33 50.45877 4.44913 600 ft 4 kts 70°
2026-04-28 13:33 50.45881 4.44927 600 ft 0 kts 67°
2026-04-28 13:34 50.46014 4.45384 598 ft 89 kts 66°
2026-04-28 13:34 50.46384 4.46642 754 ft 150 kts 63°
2026-04-28 13:34 50.46849 4.48110 1815 ft 153 kts 60°
2026-04-28 13:35 50.47558 4.49253 2783 ft 145 kts 27°
2026-04-28 13:35 50.48434 4.50016 3168 ft 150 kts 53°
2026-04-28 13:35 50.48922 4.51580 3445 ft 171 kts 60°
2026-04-28 13:35 50.49697 4.53156 3823 ft 192 kts 53°
2026-04-28 13:36 50.50596 4.54857 4156 ft 214 kts 53°
2026-04-28 13:36 50.51599 4.56767 4478 ft 238 kts 53°
2026-04-28 13:36 50.52682 4.58842 5070 ft 250 kts 55°
2026-04-28 13:36 50.53767 4.61006 5785 ft 255 kts 56°
2026-04-28 13:37 50.54866 4.63246 6529 ft 261 kts 56°
2026-04-28 13:37 50.55984 4.65516 7280 ft 264 kts 56°
2026-04-28 13:37 50.57113 4.67812 8021 ft 267 kts 56°
2026-04-28 13:37 50.58264 4.70151 8706 ft 272 kts 56°
2026-04-28 13:38 50.59429 4.72516 9448 ft 275 kts 56°
2026-04-28 13:38 50.60606 4.74910 10153 ft 279 kts 56°
2026-04-28 13:38 50.61817 4.77378 10550 ft 293 kts 56°
2026-04-28 13:38 50.63100 4.79997 10813 ft 311 kts 56°
2026-04-28 13:39 50.64384 4.82834 11159 ft 322 kts 63°
2026-04-28 13:39 50.65153 4.86136 11729 ft 322 kts 83°
2026-04-28 13:39 50.65131 4.89640 12387 ft 322 kts 102°
2026-04-28 13:39 50.64313 4.92922 12981 ft 326 kts 122°
2026-04-28 13:40 50.62862 4.95705 13526 ft 333 kts 135°
2026-04-28 13:40 50.61181 4.98236 14164 ft 336 kts 136°
2026-04-28 13:40 50.59477 5.00780 14796 ft 338 kts 136°
2026-04-28 13:40 50.57785 5.03365 15380 ft 341 kts 136°
2026-04-28 13:41 50.56084 5.05998 16015 ft 343 kts 136°
2026-04-28 13:41 50.54389 5.08640 16687 ft 344 kts 136°
2026-04-28 13:41 50.52686 5.11305 17308 ft 347 kts 137°
2026-04-28 13:41 50.50962 5.13999 17791 ft 353 kts 136°
2026-04-28 13:42 50.49205 5.16745 18323 ft 358 kts 137°
2026-04-28 13:42 50.47435 5.19509 18837 ft 361 kts 136°
2026-04-28 13:42 50.45644 5.22301 19317 ft 365 kts 136°
2026-04-28 13:42 50.43835 5.25119 19777 ft 369 kts 136°
2026-04-28 13:43 50.42036 5.27924 20286 ft 370 kts 137°
2026-04-28 13:43 50.40203 5.30774 20814 ft 372 kts 137°
2026-04-28 13:43 50.38356 5.33642 21259 ft 375 kts 137°
2026-04-28 13:43 50.36496 5.36530 21753 ft 377 kts 137°
2026-04-28 13:44 50.34627 5.39428 22244 ft 379 kts 138°
2026-04-28 13:44 50.32741 5.42350 22668 ft 383 kts 137°
2026-04-28 13:44 50.30835 5.45298 23065 ft 388 kts 137°
2026-04-28 13:44 50.28912 5.48270 23517 ft 390 kts 138°
2026-04-28 13:45 50.26971 5.51269 23837 ft 395 kts 137°
2026-04-28 13:45 50.25006 5.54303 24133 ft 399 kts 138°
2026-04-28 13:45 50.23018 5.57364 24458 ft 403 kts 137°
2026-04-28 13:45 50.21016 5.60446 24807 ft 406 kts 138°
2026-04-28 13:46 50.19654 5.62538 25043 ft 407 kts 138°
2026-04-28 13:46 50.17630 5.65645 25379 ft 410 kts 138°
2026-04-28 13:46 50.15591 5.68768 25726 ft 412 kts 138°
2026-04-28 13:46 50.13566 5.71866 26060 ft 414 kts 139°
2026-04-28 13:47 50.11503 5.75024 26394 ft 417 kts 138°
2026-04-28 13:47 50.09432 5.78191 26710 ft 419 kts 138°
2026-04-28 13:47 50.07346 5.81370 27022 ft 421 kts 138°
2026-04-28 13:47 50.05235 5.84549 27347 ft 423 kts 138°
2026-04-28 13:48 50.03104 5.87731 27636 ft 426 kts 139°
2026-04-28 13:48 50.00957 5.90937 27897 ft 430 kts 139°
2026-04-28 13:48 49.98796 5.94164 28161 ft 432 kts 139°
2026-04-28 13:48 49.96617 5.97415 28431 ft 435 kts 139°
2026-04-28 13:49 49.94428 6.00680 28715 ft 438 kts 139°
2026-04-28 13:49 49.92224 6.03956 28997 ft 440 kts 139°
2026-04-28 13:49 49.90010 6.07242 29261 ft 442 kts 139°
2026-04-28 13:49 49.87787 6.10551 29537 ft 444 kts 137°
2026-04-28 13:50 49.85773 6.14209 29782 ft 449 kts 126°
2026-04-28 13:50 49.84166 6.18380 30030 ft 453 kts 120°
2026-04-28 13:50 49.82722 6.22740 30265 ft 456 kts 118°
2026-04-28 13:50 49.81291 6.27132 30486 ft 458 kts 119°
2026-04-28 13:51 49.79833 6.31517 30716 ft 459 kts 120°
2026-04-28 13:51 49.78348 6.35910 30823 ft 462 kts 120°
2026-04-28 13:51 49.76843 6.40320 31010 ft 464 kts 121°
2026-04-28 13:51 49.75332 6.44731 31281 ft 464 kts 121°
2026-04-28 13:52 49.73821 6.49142 31562 ft 464 kts 121°
2026-04-28 13:52 49.72345 6.53577 31811 ft 464 kts 119°
2026-04-28 13:52 49.70929 6.58055 32056 ft 464 kts 119°
2026-04-28 13:52 49.69515 6.62525 32303 ft 463 kts 119°
2026-04-28 13:53 49.68100 6.66991 32538 ft 463 kts 119°
2026-04-28 13:53 49.66684 6.71452 32762 ft 462 kts 120°
2026-04-28 13:53 49.65267 6.75905 33000 ft 462 kts 120°
2026-04-28 13:53 49.63847 6.80365 33109 ft 465 kts 120°
2026-04-28 13:54 49.60984 6.89312 33104 ft 465 kts 120°
2026-04-28 13:54 49.58112 6.98249 33095 ft 465 kts 120°
2026-04-28 13:55 49.55239 7.07179 33102 ft 465 kts 120°
2026-04-28 13:55 49.52375 7.16037 33079 ft 465 kts 120°
2026-04-28 13:56 49.49459 7.25023 33111 ft 473 kts 121°
2026-04-28 13:56 49.46519 7.34069 33104 ft 473 kts 121°
2026-04-28 13:57 49.43567 7.43112 33097 ft 473 kts 121°
2026-04-28 13:57 49.40587 7.52199 33108 ft 473 kts 121°
2026-04-28 13:58 49.37626 7.61219 33122 ft 474 kts 121°
2026-04-28 13:58 49.34658 7.70211 33121 ft 476 kts 121°
2026-04-28 13:59 49.31653 7.79276 33120 ft 477 kts 121°
2026-04-28 13:59 49.28645 7.88333 33105 ft 477 kts 121°
2026-04-28 14:00 49.25629 7.97373 33114 ft 476 kts 121°
2026-04-28 14:00 49.22592 8.06434 33086 ft 482 kts 122°
2026-04-28 14:01 49.19494 8.15651 33097 ft 491 kts 122°
2026-04-28 14:01 49.16361 8.24943 33087 ft 492 kts 122°
2026-04-28 14:02 49.13218 8.34232 33080 ft 492 kts 122°
2026-04-28 14:02 49.10075 8.43495 33080 ft 492 kts 122°
2026-04-28 14:03 49.06919 8.52748 33080 ft 491 kts 122°
2026-04-28 14:03 49.03762 8.61978 33080 ft 491 kts 122°
2026-04-28 14:04 49.00596 8.71198 33070 ft 491 kts 123°
2026-04-28 14:04 48.97424 8.80401 33077 ft 491 kts 123°
2026-04-28 14:05 48.94232 8.89627 33073 ft 494 kts 122°
2026-04-28 14:05 48.91021 8.98879 33082 ft 495 kts 122°
2026-04-28 14:06 48.87803 9.08118 33077 ft 494 kts 122°
2026-04-28 14:06 48.84586 9.17343 33082 ft 494 kts 122°
2026-04-28 14:07 48.81354 9.26563 33081 ft 496 kts 122°
2026-04-28 14:07 48.78107 9.35796 33081 ft 496 kts 122°
2026-04-28 14:08 48.74848 9.45017 33071 ft 496 kts 122°
2026-04-28 14:08 48.71576 9.54223 33076 ft 496 kts 122°
2026-04-28 14:09 48.68323 9.63355 33085 ft 497 kts 122°
2026-04-28 14:09 48.64888 9.72421 33084 ft 497 kts 124°
2026-04-28 14:10 48.61357 9.81408 33097 ft 497 kts 125°
2026-04-28 14:10 48.57817 9.90379 33107 ft 497 kts 125°
2026-04-28 14:11 48.54278 9.99329 33108 ft 496 kts 125°
2026-04-28 14:11 48.50729 10.08281 33122 ft 498 kts 124°
2026-04-28 14:12 48.47169 10.17220 33121 ft 497 kts 124°
2026-04-28 14:12 48.43602 10.26144 33116 ft 497 kts 124°
2026-04-28 14:13 48.40033 10.35058 33116 ft 497 kts 124°
2026-04-28 14:13 48.36450 10.43969 33117 ft 498 kts 124°
2026-04-28 14:14 48.32857 10.52865 33114 ft 498 kts 124°
2026-04-28 14:14 48.29257 10.61757 33116 ft 498 kts 124°
2026-04-28 14:15 48.25652 10.70636 33116 ft 498 kts 124°
2026-04-28 14:15 48.22042 10.79505 33117 ft 499 kts 124°
2026-04-28 14:16 48.18415 10.88372 33115 ft 499 kts 124°
2026-04-28 14:16 48.14780 10.97229 33113 ft 499 kts 125°
2026-04-28 14:17 48.11146 11.06061 33084 ft 498 kts 125°
2026-04-28 14:17 48.07528 11.14827 33099 ft 494 kts 125°
2026-04-28 14:18 48.03908 11.23569 33094 ft 494 kts 125°
2026-04-28 14:18 48.00283 11.32294 33084 ft 495 kts 125°
2026-04-28 14:19 47.96669 11.40957 33084 ft 495 kts 125°
2026-04-28 14:19 47.93032 11.49662 33085 ft 494 kts 125°
2026-04-28 14:20 47.89383 11.58357 33089 ft 495 kts 125°
2026-04-28 14:20 47.85722 11.67057 33086 ft 495 kts 125°
2026-04-28 14:21 47.82057 11.75733 33067 ft 494 kts 125°
2026-04-28 14:21 47.78399 11.84365 33082 ft 493 kts 125°
2026-04-28 14:22 47.74739 11.92987 33079 ft 493 kts 125°
2026-04-28 14:22 47.71068 12.01594 33080 ft 493 kts 126°
2026-04-28 14:23 47.67391 12.10187 33082 ft 492 kts 125°
2026-04-28 14:23 47.63719 12.18756 33070 ft 492 kts 126°
2026-04-28 14:24 47.60030 12.27322 33074 ft 493 kts 126°
2026-04-28 14:24 47.56312 12.35835 33066 ft 490 kts 129°
2026-04-28 14:25 47.51793 12.43258 33061 ft 484 kts 139°
2026-04-28 14:25 47.47025 12.50311 33068 ft 485 kts 139°
2026-04-28 14:26 47.42270 12.57380 33069 ft 485 kts 139°
2026-04-28 14:26 47.37514 12.64470 33065 ft 486 kts 139°
2026-04-28 14:27 47.32745 12.71548 33064 ft 487 kts 139°
2026-04-28 14:27 47.27967 12.78628 33047 ft 486 kts 139°
2026-04-28 14:28 47.23225 12.85629 33075 ft 486 kts 139°
2026-04-28 14:28 47.18454 12.92660 33056 ft 487 kts 139°
2026-04-28 14:29 47.13662 12.99701 33080 ft 487 kts 139°
2026-04-28 14:29 47.08857 13.06736 33055 ft 488 kts 139°
2026-04-28 14:30 47.04059 13.13746 33048 ft 487 kts 139°
2026-04-28 14:30 46.99262 13.20734 33074 ft 486 kts 139°
2026-04-28 14:31 46.94456 13.27720 33072 ft 488 kts 139°
2026-04-28 14:31 46.89633 13.34709 33071 ft 488 kts 139°
2026-04-28 14:32 46.84802 13.41692 33086 ft 489 kts 139°
2026-04-28 14:32 46.79965 13.48660 33088 ft 489 kts 139°
2026-04-28 14:33 46.76118 13.54713 33072 ft 491 kts 132°
2026-04-28 14:33 46.71817 13.62467 33082 ft 492 kts 131°
2026-04-28 14:34 46.65347 13.74082 33088 ft 492 kts 132°
2026-04-28 14:35 46.61022 13.81808 33088 ft 493 kts 132°
2026-04-28 14:35 46.56689 13.89527 33097 ft 493 kts 132°
2026-04-28 14:36 46.52343 13.97248 33064 ft 493 kts 132°
2026-04-28 14:36 46.48051 14.04945 33090 ft 490 kts 130°
2026-04-28 14:37 46.43888 14.12788 33103 ft 491 kts 130°
2026-04-28 14:37 46.39720 14.20616 33090 ft 490 kts 130°
2026-04-28 14:38 46.35554 14.28426 33089 ft 490 kts 130°
2026-04-28 14:38 46.31381 14.36219 33086 ft 490 kts 130°
2026-04-28 14:39 46.27206 14.43998 33087 ft 490 kts 130°
2026-04-28 14:39 46.23030 14.51755 33079 ft 488 kts 130°
2026-04-28 14:40 46.18859 14.59480 33083 ft 488 kts 130°
2026-04-28 14:40 46.14689 14.67202 33094 ft 488 kts 130°
2026-04-28 14:41 46.10517 14.74915 33099 ft 488 kts 131°
2026-04-28 14:41 46.06330 14.82605 33105 ft 488 kts 131°
2026-04-28 14:42 46.02158 14.90233 33120 ft 489 kts 131°
2026-04-28 14:42 45.97945 14.97910 33102 ft 489 kts 131°
2026-04-28 14:43 45.93750 15.05558 33112 ft 487 kts 131°
2026-04-28 14:43 45.89553 15.13184 33109 ft 486 kts 131°
2026-04-28 14:44 45.85351 15.20796 33112 ft 487 kts 131°
2026-04-28 14:44 45.81140 15.28409 33112 ft 487 kts 131°
2026-04-28 14:45 45.76912 15.35998 33114 ft 487 kts 132°
2026-04-28 14:45 45.72587 15.43458 33112 ft 487 kts 132°
2026-04-28 14:46 45.68255 15.50901 33110 ft 487 kts 132°
2026-04-28 14:46 45.63918 15.58335 33113 ft 487 kts 133°
2026-04-28 14:47 45.59574 15.65759 33113 ft 487 kts 133°
2026-04-28 14:47 45.55231 15.73167 33108 ft 487 kts 133°
2026-04-28 14:48 45.50871 15.80567 33086 ft 488 kts 133°
2026-04-28 14:48 45.46529 15.87908 33083 ft 487 kts 133°
2026-04-28 14:49 45.42177 15.95287 33071 ft 485 kts 133°
2026-04-28 14:49 45.37825 16.02629 33076 ft 485 kts 133°
2026-04-28 14:50 45.33470 16.09952 33082 ft 485 kts 133°
2026-04-28 14:50 45.29112 16.17266 33076 ft 485 kts 133°
2026-04-28 14:51 45.24751 16.24566 33084 ft 485 kts 133°
2026-04-28 14:51 45.20380 16.31865 33073 ft 485 kts 133°
2026-04-28 14:52 45.16011 16.39140 33060 ft 484 kts 133°
2026-04-28 14:52 45.11608 16.46351 33062 ft 484 kts 134°
2026-04-28 14:53 45.07145 16.53437 33076 ft 483 kts 134°
2026-04-28 14:53 45.02667 16.60528 33077 ft 483 kts 134°
2026-04-28 14:54 44.98183 16.67615 33069 ft 483 kts 134°
2026-04-28 14:54 44.93699 16.74687 33061 ft 484 kts 134°
2026-04-28 14:55 44.89215 16.81737 33056 ft 481 kts 134°
2026-04-28 14:55 44.84737 16.88751 33074 ft 481 kts 134°
2026-04-28 14:56 44.80253 16.95754 33076 ft 481 kts 134°
2026-04-28 14:56 44.75768 17.02733 33058 ft 480 kts 134°
2026-04-28 14:57 44.71287 17.09703 33059 ft 480 kts 134°
2026-04-28 14:57 44.66801 17.16663 33068 ft 481 kts 134°
2026-04-28 14:58 44.62316 17.23592 33049 ft 478 kts 134°
2026-04-28 14:58 44.57870 17.30456 33049 ft 479 kts 134°
2026-04-28 14:59 44.53390 17.37352 33048 ft 478 kts 134°
2026-04-28 14:59 44.48904 17.44227 33058 ft 478 kts 134°
2026-04-28 15:00 44.44417 17.51094 33059 ft 478 kts 135°
2026-04-28 15:00 44.39925 17.57954 33054 ft 478 kts 135°
2026-04-28 15:01 44.35437 17.64804 33053 ft 477 kts 134°
2026-04-28 15:01 44.30957 17.71635 33050 ft 477 kts 135°
2026-04-28 15:02 44.26470 17.78456 33051 ft 477 kts 134°
2026-04-28 15:02 44.21987 17.85260 33033 ft 476 kts 135°
2026-04-28 15:03 44.17499 17.92051 33023 ft 476 kts 135°
2026-04-28 15:03 44.13006 17.98824 33019 ft 476 kts 135°
2026-04-28 15:04 44.08543 18.05539 33018 ft 475 kts 135°
2026-04-28 15:04 44.04052 18.12285 33020 ft 475 kts 135°
2026-04-28 15:05 43.99650 18.18854 32996 ft 476 kts 135°
2026-04-28 15:05 43.95083 18.25642 33022 ft 476 kts 135°
2026-04-28 15:06 43.90565 18.32354 33023 ft 476 kts 135°
2026-04-28 15:06 43.86050 18.39052 33017 ft 475 kts 135°
2026-04-28 15:07 43.81526 18.45735 33023 ft 476 kts 135°
2026-04-28 15:07 43.77003 18.52409 33020 ft 475 kts 135°
2026-04-28 15:08 43.72470 18.59067 33032 ft 475 kts 135°
2026-04-28 15:08 43.67935 18.65724 33016 ft 476 kts 135°
2026-04-28 15:09 43.63390 18.72377 33005 ft 476 kts 135°
2026-04-28 15:09 43.58850 18.79018 33014 ft 475 kts 135°
2026-04-28 15:10 43.54303 18.85641 33021 ft 475 kts 135°
2026-04-28 15:10 43.49755 18.92248 33024 ft 475 kts 135°
2026-04-28 15:11 43.45213 18.98870 33016 ft 476 kts 134°
2026-04-28 15:11 43.40735 19.05574 33025 ft 476 kts 134°
2026-04-28 15:12 43.36256 19.12255 33019 ft 475 kts 134°
2026-04-28 15:12 43.31774 19.18905 33025 ft 473 kts 134°
2026-04-28 15:13 43.27297 19.25528 33022 ft 473 kts 134°
2026-04-28 15:13 43.22815 19.32148 33024 ft 473 kts 134°
2026-04-28 15:14 43.18325 19.38758 33025 ft 474 kts 134°
2026-04-28 15:14 43.13834 19.45365 33025 ft 474 kts 134°
2026-04-28 15:15 43.09336 19.51960 33025 ft 474 kts 134°
2026-04-28 15:15 43.04829 19.58537 33027 ft 474 kts 134°
2026-04-28 15:16 43.00332 19.65113 33028 ft 473 kts 134°
2026-04-28 15:16 42.95859 19.71629 33029 ft 473 kts 134°
2026-04-28 15:17 42.91353 19.78177 33028 ft 473 kts 134°
2026-04-28 15:17 42.86841 19.84718 33035 ft 473 kts 134°
2026-04-28 15:18 42.82325 19.91234 33041 ft 473 kts 134°
2026-04-28 15:18 42.77814 19.97744 33045 ft 472 kts 134°
2026-04-28 15:19 42.73463 20.04379 33043 ft 469 kts 126°
2026-04-28 15:19 42.69830 20.11713 33052 ft 466 kts 123°
2026-04-28 15:20 42.66249 20.19064 33057 ft 468 kts 123°
2026-04-28 15:20 42.62600 20.26464 33060 ft 472 kts 124°
2026-04-28 15:21 42.58958 20.33810 32999 ft 462 kts 124°
2026-04-28 15:21 42.57180 20.37392 32566 ft 454 kts 124°
2026-04-28 15:21 42.55424 20.40921 32023 ft 449 kts 124°
2026-04-28 15:21 42.53682 20.44421 31431 ft 446 kts 124°
2026-04-28 15:22 42.52535 20.46729 31047 ft 444 kts 123°
2026-04-28 15:22 42.50817 20.50188 30481 ft 441 kts 123°
2026-04-28 15:22 42.49106 20.53618 29904 ft 438 kts 123°
2026-04-28 15:22 42.47403 20.57017 29273 ft 434 kts 123°
2026-04-28 15:23 42.45720 20.60387 28679 ft 429 kts 123°
2026-04-28 15:23 42.44056 20.63709 28146 ft 424 kts 123°
2026-04-28 15:23 42.42410 20.66991 27632 ft 419 kts 123°
2026-04-28 15:23 42.40779 20.70237 27093 ft 415 kts 123°
2026-04-28 15:24 42.39165 20.73450 26570 ft 411 kts 124°
2026-04-28 15:24 42.37566 20.76631 26047 ft 407 kts 124°
2026-04-28 15:24 42.35980 20.79780 25559 ft 403 kts 124°
2026-04-28 15:24 42.34408 20.82896 25078 ft 399 kts 124°
2026-04-28 15:25 42.32851 20.85983 24574 ft 396 kts 124°
2026-04-28 15:25 42.31303 20.89050 24067 ft 394 kts 124°
2026-04-28 15:25 42.29762 20.92098 23571 ft 392 kts 124°
2026-04-28 15:25 42.28232 20.95123 23013 ft 389 kts 124°
2026-04-28 15:26 42.26714 20.98126 22487 ft 386 kts 124°
2026-04-28 15:26 42.25206 21.01109 21937 ft 382 kts 124°
2026-04-28 15:26 42.23714 21.04056 21432 ft 379 kts 124°
2026-04-28 15:26 42.22238 21.06984 20944 ft 376 kts 124°
2026-04-28 15:27 42.20773 21.09887 20457 ft 373 kts 124°
2026-04-28 15:27 42.19310 21.12763 19979 ft 370 kts 124°
2026-04-28 15:27 42.17859 21.15610 19529 ft 367 kts 124°
2026-04-28 15:27 42.16425 21.18425 19070 ft 363 kts 124°
2026-04-28 15:28 42.15000 21.21218 18647 ft 359 kts 124°
2026-04-28 15:28 42.13589 21.23977 18202 ft 356 kts 124°
2026-04-28 15:28 42.12183 21.26706 17727 ft 353 kts 124°
2026-04-28 15:28 42.10797 21.29404 17285 ft 348 kts 124°
2026-04-28 15:29 42.09430 21.32070 16872 ft 343 kts 125°
2026-04-28 15:29 42.08082 21.34693 16461 ft 340 kts 125°
2026-04-28 15:29 42.06738 21.37306 16069 ft 340 kts 125°
2026-04-28 15:29 42.05408 21.39894 15696 ft 343 kts 125°
2026-04-28 15:30 42.04058 21.42527 15315 ft 341 kts 125°
2026-04-28 15:30 42.02714 21.45146 14935 ft 339 kts 125°
2026-04-28 15:30 42.01379 21.47741 14529 ft 336 kts 125°
2026-04-28 15:30 42.00050 21.50318 14114 ft 334 kts 125°
2026-04-28 15:31 41.98738 21.52874 13702 ft 331 kts 125°
2026-04-28 15:31 41.97431 21.55412 13268 ft 329 kts 125°
2026-04-28 15:31 41.96131 21.57929 12845 ft 327 kts 125°
2026-04-28 15:31 41.94840 21.60429 12451 ft 325 kts 125°
2026-04-28 15:32 41.93559 21.62913 12021 ft 322 kts 125°
2026-04-28 15:32 41.92295 21.65365 11655 ft 314 kts 125°
2026-04-28 15:32 41.91072 21.67736 11334 ft 304 kts 125°
2026-04-28 15:32 41.89880 21.70049 10870 ft 300 kts 125°
2026-04-28 15:33 41.88699 21.72340 10377 ft 297 kts 125°
2026-04-28 15:33 41.87300 21.74341 9904 ft 293 kts 148°
2026-04-28 15:33 41.85489 21.75457 9676 ft 281 kts 163°
2026-04-28 15:33 41.83657 21.76203 9517 ft 269 kts 166°
2026-04-28 15:34 41.81890 21.76873 9282 ft 259 kts 166°
2026-04-28 15:34 41.80192 21.77505 9009 ft 248 kts 166°
2026-04-28 15:34 41.78550 21.78115 8581 ft 242 kts 166°
2026-04-28 15:34 41.76968 21.78683 8233 ft 230 kts 169°
2026-04-28 15:35 41.75423 21.78576 7758 ft 221 kts 201°
2026-04-28 15:35 41.73557 21.75653 6642 ft 214 kts 261°
2026-04-28 15:35 41.73703 21.73726 6159 ft 206 kts 295°
2026-04-28 15:36 41.74524 21.72246 5860 ft 193 kts 314°
2026-04-28 15:36 41.75451 21.70972 5433 ft 191 kts 315°
2026-04-28 15:36 41.76399 21.69786 5180 ft 180 kts 329°
2026-04-28 15:36 41.77531 21.69234 4915 ft 171 kts 346°
2026-04-28 15:37 41.78700 21.68825 4449 ft 177 kts 346°
2026-04-28 15:37 41.79855 21.68212 4001 ft 181 kts 334°
2026-04-28 15:37 41.81018 21.67551 3696 ft 182 kts 341°
2026-04-28 15:37 41.82223 21.67040 3516 ft 181 kts 345°
2026-04-28 15:38 41.83438 21.66583 3310 ft 181 kts 346°
2026-04-28 15:38 41.84626 21.66163 3088 ft 172 kts 346°
2026-04-28 15:38 41.85749 21.65772 2852 ft 159 kts 346°
2026-04-28 15:38 41.86748 21.65425 2612 ft 146 kts 347°
2026-04-28 15:39 41.87729 21.65084 2394 ft 146 kts 346°
2026-04-28 15:39 41.88707 21.64744 2187 ft 144 kts 346°
2026-04-28 15:39 41.89678 21.64405 1972 ft 145 kts 345°
2026-04-28 15:39 41.90651 21.64064 1760 ft 144 kts 346°
2026-04-28 15:40 41.91620 21.63715 1528 ft 144 kts 346°
2026-04-28 15:40 41.92599 21.63386 1346 ft 146 kts 347°
2026-04-28 15:40 41.93585 21.63048 1156 ft 147 kts 345°
2026-04-28 15:40 41.94578 21.62693 944 ft 149 kts 345°
2026-04-28 15:41 41.95566 21.62344 795 ft 139 kts 345°
2026-04-28 15:41 41.96345 21.62080 795 ft 87 kts 345°
2026-04-28 15:41 41.96657 21.61972 795 ft 19 kts 346°
2026-04-28 15:41 41.96782 21.61930 797 ft 18 kts 346°
2026-04-28 15:42 41.96898 21.61891 795 ft 16 kts 346°
2026-04-28 15:42 41.96971 21.61867 795 ft 8 kts 358°
2026-04-28 15:42 41.97004 21.61908 795 ft 6 kts 83°
2026-04-28 15:42 41.96996 21.61957 796 ft 6 kts 123°
2026-04-28 15:43 41.96968 21.62007 796 ft 8 kts 129°
2026-04-28 15:43 41.96928 21.62071 797 ft 10 kts 129°
2026-04-28 15:43 41.96878 21.62149 799 ft 12 kts 144°
2026-04-28 15:43 41.96793 21.62190 799 ft 13 kts 165°
2026-04-28 15:44 41.96710 21.62220 799 ft 12 kts 165°
2026-04-28 15:44 41.96621 21.62251 798 ft 14 kts 165°
2026-04-28 15:44 41.96541 21.62279 798 ft 9 kts 165°
2026-04-28 15:44 41.96477 21.62301 798 ft 10 kts 166°
2026-04-28 15:45 41.96407 21.62324 798 ft 11 kts 166°
2026-04-28 15:45 41.96331 21.62349 797 ft 12 kts 165°
2026-04-28 15:45 41.96251 21.62380 797 ft 12 kts 165°
2026-04-28 15:45 41.96165 21.62410 797 ft 13 kts 166°
2026-04-28 15:46 41.96094 21.62434 797 ft 7 kts 165°
2026-04-28 15:46 41.96046 21.62451 797 ft 8 kts 166°
2026-04-28 15:46 41.96012 21.62500 798 ft 8 kts 89°
2026-04-28 15:46 41.96024 21.62559 798 ft 0 kts 73°
2026-04-28 15:47 41.96024 21.62558 798 ft 0 kts 73°
2026-04-28 15:47 41.96026 21.62570 798 ft 2 kts 77°
2026-04-28 15:47 41.96030 21.62591 798 ft 2 kts 76°
2026-04-28 15:47 41.96031 21.62601 798 ft 0 kts 75°